[[{"header":{"parameterUnit":"m.s-1","parameterCategory":1,"la1":30.2991,"la2":30.254,"lo1":-89.0895,"lo2":-89.0444,"dy":0.0017,"dx":0.0017,"nx":28,"ny":28,"refTime":"2025-08-23T03:00:00:Z","depth":0,"parameterNumber":2,"parameterNumberName":"U-component_of_WINDS"},"data":[0,0,0,0,0,0,0,0,0,0,0,0,0,0,0,0,0,0,0,0,0,0,0,0,0,0,0,0,0,0,0,0,0,0,0,0,0,0,0,0,0,0,0,0,0,0,0,0,0,0,0,0,0,0,0,0,0,0,0.6902,0.6902,0,0.6879,0.6878,0.6878,0.687,0.687,0.687,0.687,0.6843,0.6842,0.6842,0,0,0,0,0,0,0,0,0,0,0,0,0,0.6938,0.6937,0.6902,0.6902,0.6902,0.6879,0.6878,0.6878,0.687,0.687,0.687,0.687,0.6843,0.6843,0.6842,0,0,0,0,0,0,0,0,0,0,0,0,0,0.6919,0.6937,0.6902,0.6895,0.6894,0.6879,0.6878,0.6878,0.687,0.687,0.687,0.687,0.6844,0.6843,0.6841,0.6831,0,0,0.6838,0.6837,0,0,0,0,0,0,0,0,0.692,0.6918,0.6896,0.6895,0.6894,0.6877,0.6881,0.6862,0.687,0.6879,0.687,0.687,0.6854,0.6852,0.6847,0.683,0.6829,0.6838,0.6837,0.6836,0.6836,0,0,0,0,0,0,0,0.6921,0.6919,0.6893,0.6896,0.6895,0.6892,0.6889,0.6877,0.6866,0.6878,0.6877,0.6875,0.6854,0.6849,0.6847,0.6828,0.6838,0.6837,0.6836,0.6835,0.6801,0.6801,0,0,0,0,0,0,0.6924,0.692,0.6893,0.6892,0.6908,0.6891,0.6888,0.6883,0.6866,0.6864,0.6875,0.6875,0.6851,0.6848,0.6846,0.6832,0.6836,0.6835,0.6835,0.6801,0.6801,0.6801,0,0,0,0,0,0,0.6925,0.6922,0.6894,0.6906,0.6902,0.689,0.6884,0.6882,0.6877,0.6864,0.6861,0.6872,0.6851,0.6847,0.6835,0.6831,0.6835,0.6834,0.6801,0.6801,0.6801,0.6806,0,0,0,0,0,0,0.6926,0.6922,0.6919,0.6906,0.6902,0.6885,0.6884,0.6881,0.6875,0.6875,0.686,0.6858,0.685,0.6837,0.6834,0.683,0.6833,0.6801,0.6801,0.6801,0.6806,0.6806,0.6806,0,0,0,0,0,0.6928,0.692,0.6919,0.6915,0.6897,0.6885,0.6882,0.6874,0.6875,0.6871,0.6862,0.6858,0.6832,0.6836,0.6832,0.6828,0.6802,0.6801,0.6801,0.6806,0.6806,0.6806,0,0,0,0,0,0,0.6932,0.6919,0.6916,0.6905,0.6896,0.6883,0.6878,0.6874,0.6864,0.6864,0.6854,0.6851,0.6839,0.6832,0.6836,0.6817,0.6817,0.6816,0.6822,0.6822,0.6821,0.6823,0.6832,0,0,0,0,0,0.6932,0.6924,0.6912,0.6903,0.6899,0.6889,0.6884,0.6879,0.6869,0.6865,0.6855,0.6845,0.6834,0.6828,0.6817,0.6805,0.6801,0.68,0.68,0.68,0.6799,0.6792,0.6791,0.6799,0.6799,0.6799,0,0,0.6931,0.6923,0.6918,0.6904,0.6897,0.6888,0.6886,0.6877,0.687,0.6863,0.6851,0.6844,0.6831,0.6819,0.6813,0.6813,0.6796,0.6799,0.68,0.6798,0.6791,0.6791,0.679,0.6799,0.6799,0.6799,0,0,0.6926,0.6919,0.6911,0.6904,0.6893,0.6886,0.6885,0.6872,0.6867,0.6855,0.685,0.6841,0.6824,0.6815,0.6809,0.6801,0.6796,0.6798,0.6796,0.679,0.6789,0.6788,0.6785,0.6784,0.6797,0.6797,0.6797,0,0.6926,0.6913,0.6907,0.6898,0.6892,0.6886,0.6878,0.6871,0.6857,0.6852,0.6852,0.683,0.6822,0.6807,0.6805,0.68,0.6797,0.6799,0.679,0.6789,0.6789,0.6785,0.6784,0.6797,0.6797,0.6797,0.6797,0,0.6914,0.6905,0.69,0.6888,0.6881,0.6872,0.6864,0.6858,0.6854,0.6847,0.6835,0.6825,0.6812,0.6809,0.6804,0.6794,0.6794,0.6792,0.6792,0.6788,0.6785,0.6784,0.6797,0.6797,0.6797,0.6797,0,0,0.691,0.6895,0.6893,0.6887,0.6875,0.6868,0.6859,0.6848,0.6843,0.6833,0.6825,0.6811,0.681,0.6802,0.6797,0.6791,0.6785,0.679,0.6789,0.6789,0.6773,0.6774,0.6773,0.6782,0.6782,0.6782,0.6774,0,0.6902,0.6887,0.6881,0.6868,0.686,0.6855,0.6847,0.6839,0.6832,0.6824,0.6817,0.6807,0.6806,0.6801,0.6795,0.6787,0.6781,0.6788,0.6774,0.6774,0.6777,0.6771,0.6772,0.6764,0.6772,0.6772,0.6772,0,0.6891,0.6883,0.6869,0.6859,0.6855,0.6848,0.6838,0.683,0.682,0.6816,0.6808,0.6804,0.6793,0.6794,0.678,0.6784,0.6778,0.6774,0.6773,0.6771,0.6772,0.6768,0.6762,0.6761,0.677,0.677,0.677,0,0.6889,0.6874,0.6865,0.686,0.6848,0.6843,0.6837,0.6828,0.6822,0.6812,0.6808,0.6797,0.6791,0.6783,0.6775,0.6776,0.6761,0.6761,0.6757,0.6757,0.6753,0.6753,0.6745,0.675,0.675,0.675,0.675,0,0.6881,0.6873,0.6864,0.6857,0.6848,0.6842,0.6832,0.6826,0.6818,0.681,0.6805,0.6798,0.6788,0.6779,0.6773,0.6762,0.6759,0.6755,0.6753,0.6755,0.6756,0.6751,0.6751,0.675,0.675,0.675,0.675,0,0.6876,0.687,0.6859,0.6849,0.6846,0.6839,0.683,0.6824,0.6818,0.6808,0.6805,0.6796,0.6785,0.6777,0.6762,0.6758,0.6747,0.6745,0.675,0.6749,0.6745,0.6745,0.6733,0.6731,0.6738,0.6738,0.6738,0,0.6871,0.6865,0.6854,0.6849,0.6844,0.6836,0.683,0.6823,0.6817,0.6806,0.6801,0.679,0.6781,0.6765,0.6756,0.6745,0.6743,0.6739,0.6741,0.6743,0.6742,0.6742,0.6742,0.6739,0.6739,0.6739,0.6739,0,0.6863,0.686,0.6852,0.6844,0.6837,0.6829,0.6822,0.6818,0.6809,0.6803,0.6792,0.6786,0.6772,0.6761,0.675,0.6743,0.6739,0.6738,0.6737,0.6738,0.6741,0.6739,0.6749,0.6738,0.6738,0.6738,0.6738,0.6738,0.6857,0.6852,0.6844,0.6835,0.6829,0.6822,0.6816,0.681,0.6801,0.679,0.6787,0.6776,0.6767,0.6751,0.6745,0.6736,0.6735,0.6733,0.6732,0.6731,0.6732,0.6743,0.6734,0.6734,0.6734,0.6734,0.6734,0,0.6848,0.6843,0.6836,0.6826,0.6819,0.6817,0.6809,0.6803,0.6794,0.6786,0.6778,0.6766,0.6756,0.6747,0.6736,0.6731,0.6729,0.6728,0.6728,0.6727,0.6733,0.6735,0.673,0.673,0.673,0.673,0.673,0.673,0.6843,0.6833,0.683,0.6817,0.6812,0.6802,0.6798,0.6791,0.6785,0.6772,0.6764,0.6759,0.675,0.6739,0.673,0.6727,0.6723,0.6723,0.672,0.6726,0.6726,0.6727,0.6729,0.6722,0.6722,0.6715,0.6714,0.6714]},{"header":{"parameterUnit":"m.s-1","parameterCategory":1,"la1":30.2991,"la2":30.254,"lo1":-89.0895,"lo2":-89.0444,"dy":0.0017,"dx":0.0017,"nx":28,"ny":28,"refTime":"2025-08-23T03:00:00:Z","depth":0,"parameterNumber":3,"parameterNumberName":"V-component_of_WINDS"},"data":[0,0,0,0,0,0,0,0,0,0,0,0,0,0,0,0,0,0,0,0,0,0,0,0,0,0,0,0,0,0,0,0,0,0,0,0,0,0,0,0,0,0,0,0,0,0,0,0,0,0,0,0,0,0,0,0,0,0,-2.2989,-2.2989,0,-2.2999,-2.3,-2.3,-2.2982,-2.2982,-2.2981,-2.298,-2.299,-2.299,-2.2991,0,0,0,0,0,0,0,0,0,0,0,0,0,-2.2953,-2.2953,-2.2989,-2.2989,-2.2989,-2.2999,-2.3,-2.3,-2.2982,-2.2982,-2.2981,-2.298,-2.2989,-2.299,-2.2991,0,0,0,0,0,0,0,0,0,0,0,0,0,-2.2966,-2.2954,-2.2989,-2.2982,-2.2981,-2.2999,-2.3,-2.3,-2.2982,-2.2981,-2.2981,-2.298,-2.2989,-2.299,-2.2991,-2.3017,0,0,-2.2995,-2.2996,0,0,0,0,0,0,0,0,-2.2965,-2.2968,-2.2983,-2.2982,-2.2982,-2.2989,-2.299,-2.3005,-2.2983,-2.2982,-2.298,-2.2979,-2.299,-2.2991,-2.2995,-2.3017,-2.3017,-2.2995,-2.2996,-2.2997,-2.2997,0,0,0,0,0,0,0,-2.2965,-2.2967,-2.2993,-2.2983,-2.2982,-2.2978,-2.2979,-2.2993,-2.2991,-2.2982,-2.2981,-2.2982,-2.299,-2.2994,-2.2995,-2.3018,-2.2995,-2.2996,-2.2997,-2.2998,-2.3059,-2.306,0,0,0,0,0,0,-2.2965,-2.2966,-2.2993,-2.2993,-2.2971,-2.2979,-2.298,-2.2987,-2.2991,-2.299,-2.2983,-2.2981,-2.2992,-2.2994,-2.2995,-2.3024,-2.2996,-2.2998,-2.2998,-2.3058,-2.306,-2.3061,0,0,0,0,0,0,-2.2964,-2.2967,-2.2992,-2.298,-2.2982,-2.2981,-2.2989,-2.2988,-2.2992,-2.2991,-2.2991,-2.2988,-2.2992,-2.2994,-2.3011,-2.3024,-2.2998,-2.2999,-2.3057,-2.3059,-2.306,-2.3081,0,0,0,0,0,0,-2.2963,-2.2967,-2.2977,-2.298,-2.2983,-2.3009,-2.299,-2.2989,-2.2994,-2.2992,-2.2996,-2.2995,-2.2991,-2.3009,-2.3012,-2.3025,-2.3,-2.3056,-2.3058,-2.306,-2.3079,-2.3083,-2.3086,0,0,0,0,0,-2.2962,-2.2983,-2.2978,-2.2981,-2.2996,-2.301,-2.3011,-2.3006,-2.2996,-2.3005,-2.3004,-2.2995,-2.3022,-2.3011,-2.3015,-2.3028,-2.3055,-2.3057,-2.3059,-2.3078,-2.3082,-2.3086,0,0,0,0,0,0,-2.2981,-2.2983,-2.2977,-2.3,-2.3005,-2.3007,-2.3018,-2.3011,-2.3019,-2.3017,-2.301,-2.3011,-2.3029,-2.303,-2.3018,-2.3051,-2.3037,-2.304,-2.305,-2.3054,-2.3058,-2.3056,-2.3001,0,0,0,0,0,-2.2988,-2.3,-2.3001,-2.302,-2.3023,-2.302,-2.3026,-2.3022,-2.3026,-2.3028,-2.3029,-2.3033,-2.3042,-2.3048,-2.3057,-2.308,-2.308,-2.309,-2.3094,-2.3097,-2.3099,-2.3109,-2.3114,-2.3067,-2.3067,-2.3067,0,0,-2.3002,-2.3005,-2.3013,-2.3024,-2.3027,-2.3039,-2.3022,-2.3035,-2.3043,-2.303,-2.3046,-2.3047,-2.3051,-2.3071,-2.308,-2.3073,-2.3112,-2.3099,-2.3102,-2.3102,-2.3112,-2.3116,-2.312,-2.3069,-2.3069,-2.3068,0,0,-2.3034,-2.3038,-2.3054,-2.3057,-2.3062,-2.306,-2.3064,-2.3067,-2.3067,-2.3083,-2.3073,-2.3083,-2.3099,-2.3102,-2.3106,-2.3138,-2.3129,-2.3141,-2.3159,-2.3169,-2.3173,-2.3176,-2.3186,-2.319,-2.3143,-2.3143,-2.3144,0,-2.3051,-2.3068,-2.3063,-2.3076,-2.3081,-2.307,-2.3086,-2.3089,-2.3097,-2.31,-2.3092,-2.3112,-2.3114,-2.3134,-2.3141,-2.3145,-2.3149,-2.314,-2.3173,-2.3176,-2.3179,-2.3188,-2.3192,-2.3145,-2.3145,-2.3144,-2.3144,0,-2.3087,-2.3099,-2.3112,-2.3119,-2.3126,-2.314,-2.3137,-2.3144,-2.3139,-2.3137,-2.3154,-2.3156,-2.3164,-2.3169,-2.3164,-2.3188,-2.3183,-2.3174,-2.3159,-2.3185,-2.3193,-2.3197,-2.3147,-2.3146,-2.3146,-2.3145,0,0,-2.3131,-2.3135,-2.3139,-2.3142,-2.3147,-2.3155,-2.3169,-2.3177,-2.3183,-2.3189,-2.3199,-2.3213,-2.3205,-2.3209,-2.3205,-2.3214,-2.3237,-2.3204,-2.3204,-2.3209,-2.3262,-2.3267,-2.3271,-2.3232,-2.3233,-2.3234,-2.3261,0,-2.3161,-2.3184,-2.318,-2.3203,-2.3213,-2.3202,-2.3214,-2.3218,-2.3217,-2.3225,-2.3224,-2.3233,-2.3222,-2.3225,-2.3234,-2.3233,-2.3248,-2.3231,-2.3241,-2.3241,-2.3238,-2.3276,-2.3282,-2.3307,-2.3264,-2.3265,-2.3265,0,-2.3199,-2.3205,-2.3229,-2.3231,-2.3235,-2.3246,-2.3252,-2.3261,-2.3264,-2.3263,-2.3267,-2.3261,-2.3274,-2.326,-2.3277,-2.3265,-2.3269,-2.3269,-2.327,-2.3269,-2.3254,-2.3275,-2.3316,-2.3319,-2.3271,-2.327,-2.327,0,-2.3226,-2.3241,-2.3256,-2.3259,-2.3262,-2.327,-2.3271,-2.3274,-2.3279,-2.3285,-2.3288,-2.3295,-2.3299,-2.3305,-2.33,-2.3291,-2.3317,-2.3303,-2.3315,-2.3315,-2.332,-2.3319,-2.336,-2.3325,-2.3325,-2.3325,-2.3325,0,-2.3259,-2.3273,-2.3268,-2.3278,-2.3293,-2.3288,-2.3304,-2.3304,-2.3307,-2.3315,-2.3307,-2.3316,-2.331,-2.3318,-2.3315,-2.3328,-2.333,-2.3329,-2.3327,-2.3329,-2.3329,-2.333,-2.3327,-2.3326,-2.3326,-2.3326,-2.3326,0,-2.3291,-2.3289,-2.3305,-2.3306,-2.3307,-2.3318,-2.3319,-2.3328,-2.3326,-2.3338,-2.334,-2.3338,-2.3346,-2.3343,-2.3352,-2.335,-2.3367,-2.3364,-2.3365,-2.3364,-2.3376,-2.3374,-2.3417,-2.3422,-2.3386,-2.3386,-2.3386,0,-2.3311,-2.3322,-2.3325,-2.333,-2.3332,-2.3341,-2.3346,-2.3341,-2.3346,-2.3351,-2.3359,-2.3367,-2.3373,-2.3387,-2.3386,-2.3392,-2.3389,-2.3403,-2.3389,-2.339,-2.3387,-2.3386,-2.3386,-2.3406,-2.3406,-2.3406,-2.3407,0,-2.3347,-2.3345,-2.3353,-2.336,-2.3366,-2.3371,-2.3375,-2.338,-2.3375,-2.3382,-2.339,-2.3395,-2.3404,-2.3412,-2.3418,-2.3419,-2.3412,-2.3411,-2.3414,-2.3415,-2.3414,-2.3413,-2.3371,-2.341,-2.341,-2.3409,-2.3409,-2.3409,-2.3373,-2.3382,-2.3384,-2.3393,-2.3395,-2.34,-2.3407,-2.3407,-2.3414,-2.3421,-2.3418,-2.3428,-2.343,-2.3438,-2.344,-2.3447,-2.3441,-2.3445,-2.3446,-2.3447,-2.3448,-2.3415,-2.3448,-2.3448,-2.3448,-2.3448,-2.3448,0,-2.3407,-2.3408,-2.3416,-2.3422,-2.3428,-2.3422,-2.3426,-2.3432,-2.344,-2.3444,-2.345,-2.3459,-2.3466,-2.3466,-2.3472,-2.3478,-2.3475,-2.348,-2.3478,-2.3479,-2.3454,-2.345,-2.3482,-2.3482,-2.3482,-2.3482,-2.3482,-2.3482,-2.3425,-2.3439,-2.3437,-2.3452,-2.3453,-2.3463,-2.3465,-2.3469,-2.3471,-2.3482,-2.3488,-2.3488,-2.3489,-2.3496,-2.3502,-2.3501,-2.3504,-2.3509,-2.3508,-2.3484,-2.348,-2.3477,-2.3473,-2.351,-2.351,-2.3532,-2.3532,-2.3532]}]]